When you browse on this site, cookies collect data to enhance your experience and personalize the content and advertising you see.
Visit our Privacy Policy to learn more. By continuing to use the site, you agree to this use of cookies and data.
  • In Belgien
  • Länderverzeichnis
  • Für 7 Tage
  • Wassertemperatur
  • Wetterkarte
  • Widgets
  • user-avatar
    Anmelden

    Stündliche Wetter Udong

    Heute, 25 Januar, Samstag

    Zeit Temperatur Niederschläge Wind Luftdruck Luftfeuchtigkeit
    00:00 +26°C° 0 mm 3 m/S 757 mmHg 60%
    01:00 +25°C° 0 mm 3 m/S 757 mmHg 70%
    02:00 +25°C° 0 mm 3 m/S 757 mmHg 74%
    03:00 +24°C° 0 mm 3 m/S 756 mmHg 78%
    04:00 +24°C° 0 mm 3 m/S 756 mmHg 82%
    05:00 +24°C° 0 mm 3 m/S 756 mmHg 82%
    06:00 +24°C° 0 mm 3 m/S 757 mmHg 83%
    07:00 +24°C° 0 mm 3 m/S 757 mmHg 84%
    08:00 +26°C° 0 mm 4 m/S 757 mmHg 74%
    09:00 +29°C° 0 mm 4 m/S 758 mmHg 65%
    10:00 +32°C° 0 mm 4 m/S 758 mmHg 55%
    11:00 +34°C° 0 mm 4 m/S 757 mmHg 50%
    12:00 +35°C° 0 mm 4 m/S 756 mmHg 45%
    13:00 +36°C° 0 mm 4 m/S 755 mmHg 40%
    14:00 +36°C° 0 mm 4 m/S 754 mmHg 38%
    15:00 +37°C° 0 mm 4 m/S 754 mmHg 37%
    16:00 +37°C° 0 mm 4 m/S 753 mmHg 36%
    17:00 +35°C° 0 mm 4 m/S 753 mmHg 40%
    18:00 +33°C° 0 mm 3 m/S 754 mmHg 45%
    19:00 +30°C° 0 mm 3 m/S 754 mmHg 50%
    20:00 +29°C° 0 mm 3 m/S 755 mmHg 55%
    21:00 +29°C° 0 mm 3 m/S 756 mmHg 60%
    22:00 +28°C° 0 mm 3 m/S 756 mmHg 65%
    23:00 +27°C° 0 mm 3 m/S 756 mmHg 70%

    Morgen, 26 Januar, Sonntag

    Zeit Temperatur Niederschläge Wind Luftdruck Luftfeuchtigkeit
    00:00 +27°C° 0 mm 3 m/S 756 mmHg 74%
    01:00 +26°C° 0 mm 2 m/S 756 mmHg 79%
    02:00 +26°C° 0 mm 2 m/S 756 mmHg 82%
    03:00 +25°C° 0 mm 2 m/S 756 mmHg 85%
    04:00 +25°C° 0 mm 2 m/S 755 mmHg 88%
    05:00 +25°C° 0 mm 2 m/S 756 mmHg 88%
    06:00 +25°C° 0 mm 2 m/S 756 mmHg 88%
    07:00 +25°C° 0 mm 2 m/S 756 mmHg 89%
    08:00 +27°C° 0 mm 2 m/S 757 mmHg 80%
    09:00 +29°C° 0 mm 3 m/S 757 mmHg 71%
    10:00 +31°C° 0 mm 3 m/S 757 mmHg 62%
    11:00 +33°C° 0 mm 3 m/S 756 mmHg 56%
    12:00 +34°C° 0 mm 2 m/S 755 mmHg 50%
    13:00 +36°C° 0 mm 2 m/S 754 mmHg 44%
    14:00 +36°C° 0 mm 2 m/S 754 mmHg 41%
    15:00 +35°C° 0 mm 1 m/S 753 mmHg 38%
    16:00 +36°C° 0 mm 1 m/S 752 mmHg 36%
    17:00 +34°C° 0 mm 1 m/S 753 mmHg 39%
    18:00 +34°C° 0 mm 2 m/S 753 mmHg 42%
    19:00 +31°C° 0 mm 2 m/S 754 mmHg 46%
    20:00 +31°C° 0 mm 2 m/S 754 mmHg 49%
    21:00 +30°C° 0 mm 2 m/S 755 mmHg 53%
    22:00 +30°C° 0 mm 3 m/S 755 mmHg 57%
    23:00 +29°C° 0 mm 3 m/S 755 mmHg 63%

    übermorgen, 27 Januar, Montag

    Zeit Temperatur Niederschläge Wind Luftdruck Luftfeuchtigkeit
    00:00 +28°C° 0 mm 3 m/S 755 mmHg 70%
    01:00 +27°C° 0 mm 3 m/S 755 mmHg 76%
    02:00 +26°C° 0 mm 3 m/S 755 mmHg 81%
    03:00 +26°C° 0 mm 3 m/S 754 mmHg 85%
    04:00 +25°C° 0 mm 3 m/S 754 mmHg 89%
    05:00 +25°C° 0 mm 3 m/S 755 mmHg 89%
    06:00 +25°C° 0 mm 3 m/S 755 mmHg 90%
    07:00 +25°C° 0 mm 3 m/S 756 mmHg 91%
    08:00 +27°C° 0 mm 3 m/S 756 mmHg 81%
    09:00 +29°C° 0 mm 4 m/S 757 mmHg 70%
    10:00 +33°C° 0 mm 4 m/S 757 mmHg 60%
    11:00 +34°C° 0 mm 4 m/S 756 mmHg 54%
    12:00 +35°C° 0 mm 4 m/S 755 mmHg 48%
    13:00 +36°C° 0 mm 4 m/S 755 mmHg 42%
    14:00 +36°C° 0 mm 4 m/S 754 mmHg 40%
    15:00 +37°C° 0 mm 4 m/S 753 mmHg 39%
    16:00 +37°C° 0 mm 4 m/S 753 mmHg 37%
    17:00 +35°C° 0 mm 4 m/S 753 mmHg 41%
    18:00 +33°C° 0 mm 4 m/S 753 mmHg 45%
    19:00 +32°C° 0 mm 4 m/S 754 mmHg 48%
    20:00 +30°C° 0 mm 4 m/S 754 mmHg 54%
    21:00 +29°C° 0 mm 4 m/S 755 mmHg 60%
    22:00 +28°C° 0 mm 4 m/S 755 mmHg 66%
    23:00 +27°C° 0 mm 4 m/S 755 mmHg 70%

    28 Januar, Dienstag

    Zeit Temperatur Niederschläge Wind Luftdruck Luftfeuchtigkeit
    00:00 +27°C° 0 mm 4 m/S 755 mmHg 74%
    01:00 +26°C° 0 mm 4 m/S 755 mmHg 77%
    02:00 +26°C° 0 mm 3 m/S 755 mmHg 81%
    03:00 +25°C° 0 mm 3 m/S 755 mmHg 84%
    04:00 +25°C° 0 mm 2 m/S 755 mmHg 87%
    05:00 +24°C° 0 mm 2 m/S 755 mmHg 88%
    06:00 +24°C° 0 mm 3 m/S 756 mmHg 89%
    07:00 +24°C° 0 mm 3 m/S 756 mmHg 90%
    08:00 +26°C° 0 mm 3 m/S 756 mmHg 80%
    09:00 +28°C° 0 mm 3 m/S 757 mmHg 71%
    10:00 +32°C° 0 mm 4 m/S 757 mmHg 61%
    11:00 +33°C° 0 mm 3 m/S 756 mmHg 52%
    12:00 +35°C° 0 mm 3 m/S 756 mmHg 43%
    13:00 +36°C° 0 mm 3 m/S 755 mmHg 35%
    14:00 +36°C° 0 mm 3 m/S 754 mmHg 33%
    15:00 +37°C° 0 mm 3 m/S 754 mmHg 31%
    16:00 +37°C° 0 mm 3 m/S 753 mmHg 29%
    17:00 +35°C° 0 mm 3 m/S 753 mmHg 32%
    18:00 +33°C° 0 mm 3 m/S 754 mmHg 34%
    19:00 +30°C° 0 mm 3 m/S 754 mmHg 37%
    20:00 +29°C° 0 mm 3 m/S 755 mmHg 43%
    21:00 +28°C° 0 mm 3 m/S 755 mmHg 48%
    22:00 +27°C° 0 mm 3 m/S 756 mmHg 53%
    23:00 +27°C° 0 mm 3 m/S 756 mmHg 60%

    29 Januar, Mittwoch

    Zeit Temperatur Niederschläge Wind Luftdruck Luftfeuchtigkeit
    00:00 +26°C° 0 mm 3 m/S 756 mmHg 66%
    01:00 +25°C° 0 mm 4 m/S 756 mmHg 73%
    02:00 +25°C° 0 mm 3 m/S 756 mmHg 79%
    03:00 +24°C° 0 mm 3 m/S 756 mmHg 85%
    04:00 +24°C° 0 mm 3 m/S 756 mmHg 91%
    05:00 +24°C° 0 mm 3 m/S 756 mmHg 91%
    06:00 +24°C° 0 mm 3 m/S 757 mmHg 92%
    07:00 +24°C° 0 mm 2 m/S 757 mmHg 92%
    08:00 +26°C° 0 mm 2 m/S 758 mmHg 82%
    09:00 +28°C° 0 mm 2 m/S 758 mmHg 71%
    10:00 +30°C° 0 mm 2 m/S 758 mmHg 60%
    11:00 +32°C° 0 mm 2 m/S 757 mmHg 54%
    12:00 +34°C° 0 mm 2 m/S 757 mmHg 47%
    13:00 +36°C° 0 mm 2 m/S 756 mmHg 41%
    14:00 +36°C° 0 mm 2 m/S 755 mmHg 40%
    15:00 +34°C° 0 mm 1 m/S 755 mmHg 39%
    16:00 +34°C° 0 mm 1 m/S 754 mmHg 38%
    17:00 +34°C° 0 mm 2 m/S 754 mmHg 41%
    18:00 +32°C° 0 mm 2 m/S 755 mmHg 44%
    19:00 +31°C° 0 mm 2 m/S 755 mmHg 47%
    20:00 +30°C° 0 mm 2 m/S 755 mmHg 48%
    21:00 +30°C° 0 mm 1 m/S 756 mmHg 50%
    22:00 +29°C° 0 mm 1 m/S 757 mmHg 51%
    23:00 +29°C° 0 mm 1 m/S 757 mmHg 53%

    30 Januar, Donnerstag

    Zeit Temperatur Niederschläge Wind Luftdruck Luftfeuchtigkeit
    00:00 +29°C° 0 mm 2 m/S 757 mmHg 55%
    01:00 +29°C° 0 mm 3 m/S 757 mmHg 57%
    02:00 +28°C° 0 mm 3 m/S 756 mmHg 63%
    03:00 +27°C° 0 mm 3 m/S 756 mmHg 70%
    04:00 +26°C° 0 mm 4 m/S 756 mmHg 76%
    05:00 +26°C° 0.2 mm 3 m/S 757 mmHg 80%
    06:00 +25°C° 0.2 mm 3 m/S 757 mmHg 84%
    07:00 +25°C° 0.2 mm 3 m/S 758 mmHg 88%
    08:00 +27°C° 0.3 mm 3 m/S 758 mmHg 79%
    09:00 +29°C° 0.3 mm 3 m/S 758 mmHg 70%
    10:00 +31°C° 0.3 mm 3 m/S 758 mmHg 61%
    11:00 +31°C° 0.2 mm 3 m/S 757 mmHg 56%
    12:00 +32°C° 0.2 mm 2 m/S 756 mmHg 51%
    13:00 +34°C° 0.2 mm 2 m/S 756 mmHg 46%
    14:00 +34°C° 0 mm 2 m/S 755 mmHg 45%
    15:00 +34°C° 0 mm 2 m/S 754 mmHg 44%
    16:00 +35°C° 0 mm 2 m/S 754 mmHg 43%
    17:00 +32°C° 0 mm 2 m/S 754 mmHg 46%
    18:00 +31°C° 0 mm 1 m/S 754 mmHg 48%
    19:00 +29°C° 0 mm 1 m/S 755 mmHg 51%
    20:00 +29°C° 0 mm 1 m/S 755 mmHg 53%
    21:00 +28°C° 0 mm 1 m/S 756 mmHg 54%
    22:00 +28°C° 0 mm 1 m/S 757 mmHg 56%
    23:00 +28°C° 0.1 mm 1 m/S 756 mmHg 61%
    Mehr zeigen